Location: Appeville
(49.3218°N, 1.3427°W)
Time: 18:17:28
(UTC+00:00)

IRIDIUM 104 - Pass Details

Date: 08 December 2019
Orbit: 776 x 779 km, 86.4° (Epoch: 28 January)

Event Time Altitude Azimuth Distance (km) Brightness Sun altitude
Rises 06:51:33 0° 355° (N) 3,277 7.3 -8.7°
Reaches altitude 10° 06:53:55 10° 356° (N) 2,344 6.5 -8.3°
Maximum altitude 06:59:11 89° 272° (W) 786 4.4 -7.6°
Drops below altitude 10° 07:04:24 10° 179° (S) 2,324 7.2 -6.8°
Sets 07:06:44 0° 179° (S) 3,246 8.0 -6.5°
